Overview Statistics Trail Chart Weather Telemetry Raw packets
 

This is the latest recevied weather packets stored in our database for station/object IV3CGM-13. If no packets are shown the sender has not sent any weather packets the latest 10 day(s).

<< 1 2 3 4 >>
Time Temp. Humidity Pressure Rain* Wind** Luminosity Snow
1788578054 22.22° C 73% 1016.3 hPa 0 mm - 0 W/m² -
1788577366 22.78° C 73% 1016.3 hPa 0 mm - 0 W/m² -
1788576679 22.22° C 74% 1016.3 hPa 0 mm - 0 W/m² -
1788575992 22.78° C 73% 1016.3 hPa 0 mm - 0 W/m² -
1788575291 22.78° C 72% 1016.3 hPa 0 mm - 0 W/m² -
1788574603 22.22° C 72% 1016.3 hPa 0 mm - 0 W/m² -
1788573916 22.22° C 75% 1016.4 hPa 0 mm - 0 W/m² -
1788573229 22.22° C 74% 1016.4 hPa 0 mm - 0 W/m² -
1788572492 22.22° C 73% 1016.5 hPa 0 mm - 0 W/m² -
1788571791 22.22° C 74% 1016.5 hPa 0 mm - 0 W/m² -
1788571104 22.22° C 75% 1016.7 hPa 0 mm - 0 W/m² -
1788570416 22.22° C 75% 1016.7 hPa 0 mm - 0 W/m² -
1788569729 22.22° C 74% 1016.8 hPa 0 mm - 0 W/m² -
1788568992 21.67° C 77% 1016.9 hPa 0 mm - 0 W/m² -
1788568291 21.11° C 81% 1017 hPa 0 mm - 0 W/m² -
1788567591 21.11° C 80% 1017.1 hPa 0 mm - 0 W/m² -
1788566904 20.56° C 85% 1017.1 hPa 0 mm - 0 W/m² -
1788566217 20.56° C 82% 1017.2 hPa 0 mm - 0 W/m² -
1788565480 20.56° C 84% 1017.4 hPa 0 mm - 0 W/m² -
1788564778 21.11° C 81% 1017.6 hPa 0 mm - 0 W/m² -
1788564091 21.67° C 78% 1017.6 hPa 0 mm - 0 W/m² -
1788563404 22.22° C 79% 1017.5 hPa 0 mm - 0 W/m² -
1788562716 22.22° C 74% 1017.5 hPa 0 mm - 0 W/m² -
1788561979 22.78° C 75% 1017.5 hPa 0 mm - 0 W/m² -
1788561278 22.78° C 72% 1017.6 hPa 0 mm - 0 W/m² -

* Rain latest hour (hover to see other rain measurements)
** Current wind speed in m/s (hover to see current wind gust speed)